This is the latest recevied weather packets stored in our database for station/object OK1KKY-18. If no packets are shown the sender has not sent any weather packets the latest 10 day(s).
| Time | Temp. | Humidity | Pressure | Rain* | Wind** | Luminosity | Snow |
|---|---|---|---|---|---|---|---|
| 1778006162 | 17.78° C | 57% | 1006.6 hPa | - | - | - | - |
| 1778005562 | 17.78° C | 61% | 1006.4 hPa | - | - | - | - |
| 1778004962 | 17.78° C | 61% | 1006 hPa | - | - | - | - |
| 1778004362 | 18.33° C | 59% | 1006 hPa | - | - | - | - |
| 1778003762 | 18.33° C | 58% | 1006 hPa | - | - | - | - |
| 1778003162 | 18.89° C | 58% | 1005.9 hPa | - | - | - | - |
| 1778002562 | 18.89° C | 57% | 1006 hPa | - | - | - | - |
| 1778001961 | 18.89° C | 56% | 1006 hPa | - | - | - | - |
| 1778001362 | 19.44° C | 55% | 1006.1 hPa | - | - | - | - |
| 1778000762 | 20° C | 54% | 1006 hPa | - | - | - | - |
| 1778000162 | 20° C | 52% | 1006.2 hPa | - | - | - | - |
| 1777999562 | 20.56° C | 49% | 1006.1 hPa | - | - | - | - |
| 1777998962 | 20.56° C | 48% | 1006.2 hPa | - | - | - | - |
| 1777998362 | 20.56° C | 48% | 1006.2 hPa | - | - | - | - |
| 1777997762 | 20.56° C | 46% | 1006.3 hPa | - | - | - | - |
| 1777997162 | 21.11° C | 43% | 1006.4 hPa | - | - | - | - |
| 1777996562 | 21.67° C | 38% | 1006.4 hPa | - | - | - | - |
| 1777995962 | 22.22° C | 31% | 1006.5 hPa | - | - | - | - |
| 1777995362 | 22.78° C | 32% | 1006.5 hPa | - | - | - | - |
| 1777994764 | 22.78° C | 31% | 1006.5 hPa | - | - | - | - |
| 1777994166 | 23.33° C | 31% | 1006.6 hPa | - | - | - | - |
| 1777993560 | 23.33° C | 31% | 1006.5 hPa | - | - | - | - |
| 1777992960 | 23.33° C | 29% | 1006.6 hPa | - | - | - | - |
| 1777992360 | 23.89° C | 29% | 1006.5 hPa | - | - | - | - |
| 1777991760 | 25.56° C | 28% | 1006.6 hPa | - | - | - | - |
* Rain since midnight (hover to see other rain measurements)
** Current wind speed in m/s (hover to see current wind gust speed)